Weather in Sartana

Ukraine / Donetsk Region     47°10′38″N   37°41′19″E
temp.,
°C
wind,
m/s
gust,
m/s
humid.,
%
clouds,
%
prec.,
mm/h
press.,
hPa
HPBL,
m
17 may, mon
mon1700:00+18ene51272100 0.0 1003248
03:00+18e713588 0.1 1003329
06:00+17ese5117072 0.0 1003309
09:00+18s6882100 0.0 1004490
12:00+20s6771100 0.1 1006536
15:00+20ssw677299 0.1 1006559
18:00+18sse578091 0.0 1007486
21:00+16s3595100 0.0 1008162
18 may, tue
tue1800:00+15s3597100 0.0 1008248
03:00+15ssw3697100 0.0 1008247
06:00+15ssw3690100 0.0 1009352
09:00+17ssw677454 0.1 1009946
12:00+18ssw787472 0.1 10091001
15:00+19ssw89643 0.1 10091179
18:00+18ssw69672 0.0 1009767
21:00+15ssw49845 0.0 1008327
19 may, wed
wed1900:00+15s48886 0.0 1007385
03:00+15s4795100 0.5 1006549
06:00+13sw3888100 0.4 1007474
09:00+16ssw5778100 0.5 1007802
12:00+19sw7953100 0.3 10081648
15:00+18sw9106347 0.3 10091425
18:00+17ssw7106674 0.2 10091174
21:00+14sw81390100 1.1 1010911
20 may, thu
thu2000:00+14sw8148412 0.3 1010928
03:00+13sw7148887 0.3 1011743
06:00+13sw612892 0.0 1012595
09:00+18wsw710630 0.0 10131087
12:00+20ssw775842 0.1 10131530
15:00+21ssw665441 0.1 10131073
18:00+19s455695 0.0 1014437
21:00+14ese236973 0.0 101430
21 may, fri
fri2100:00+14e4780100 0.0 1013113
03:00+13ene499139 0.0 1013161
06:00+14e61382100 0.0 1013317
09:00+19e71062100 0.0 1012463
12:00+23ese675275 0.0 1012703
15:00+26e795053 0.0 1011890
18:00+24e69640 0.0 1010756
21:00+19ene411830 0.0 1010242